TimeAKST,TemperatureF,Dew PointF,Humidity,Sea Level PressureIn,VisibilityMPH,Wind Direction,Wind SpeedMPH,Gust SpeedMPH,PrecipitationIn,Events,Conditions,WindDirDegrees,DateUTC
12:53 AM,39.0,26.1,60,29.35,10.0,ESE,23.0,33.4,N/A,,Overcast,110,2012-11-20 09:53:00
1:53 AM,39.0,27.0,62,29.37,10.0,ESE,21.9,31.1,N/A,,Overcast,110,2012-11-20 10:53:00
2:53 AM,39.9,26.1,58,29.39,10.0,ESE,12.7,21.9,N/A,,Overcast,120,2012-11-20 11:53:00
3:53 AM,39.0,25.0,57,29.42,10.0,ESE,23.0,28.8,N/A,,Overcast,110,2012-11-20 12:53:00
4:53 AM,39.9,25.0,55,29.43,10.0,ESE,12.7,23.0,N/A,,Overcast,110,2012-11-20 13:53:00
5:53 AM,39.0,24.1,55,29.44,10.0,East,16.1,24.2,N/A,,Clear,100,2012-11-20 14:53:00
6:53 AM,37.9,24.1,57,29.45,10.0,East,16.1,23.0,N/A,,Clear,100,2012-11-20 15:53:00
7:53 AM,37.9,24.1,57,29.45,10.0,East,8.1,-,N/A,,Partly Cloudy,90,2012-11-20 16:53:00
8:53 AM,39.0,27.0,62,29.44,10.0,ESE,8.1,-,N/A,,Partly Cloudy,120,2012-11-20 17:53:00
9:53 AM,39.9,28.9,65,29.44,10.0,Calm,Calm,-,N/A,,Partly Cloudy,0,2012-11-20 18:53:00
10:53 AM,41.0,28.9,62,29.45,10.0,Calm,Calm,-,N/A,,Partly Cloudy,0,2012-11-20 19:53:00
11:53 AM,42.1,28.0,58,29.43,10.0,Calm,Calm,-,N/A,,Clear,0,2012-11-20 20:53:00
12:53 PM,43.0,27.0,53,29.42,10.0,ENE,4.6,-,N/A,,Scattered Clouds,70,2012-11-20 21:53:00
1:53 PM,42.1,28.9,60,29.40,10.0,NW,5.8,-,N/A,,Scattered Clouds,320,2012-11-20 22:53:00
2:53 PM,41.0,28.9,62,29.38,10.0,Variable,4.6,-,N/A,,Clear,0,2012-11-20 23:53:00
3:53 PM,39.0,28.0,65,29.37,10.0,NW,5.8,-,N/A,,Clear,310,2012-11-21 00:53:00
4:53 PM,37.9,30.0,73,29.35,10.0,NW,8.1,-,N/A,,Clear,310,2012-11-21 01:53:00
5:53 PM,39.0,23.0,53,29.35,10.0,Variable,5.8,-,N/A,,Clear,0,2012-11-21 02:53:00
6:53 PM,39.0,21.0,49,29.36,10.0,Calm,Calm,-,N/A,,Clear,0,2012-11-21 03:53:00
7:53 PM,37.9,19.0,47,29.36,10.0,Calm,Calm,-,N/A,,Clear,0,2012-11-21 04:53:00
8:53 PM,39.9,19.9,45,29.35,10.0,NW,4.6,-,N/A,,Clear,320,2012-11-21 05:53:00
9:53 PM,37.0,23.0,57,29.37,10.0,NE,3.5,-,N/A,,Scattered Clouds,50,2012-11-21 06:53:00
10:53 PM,37.9,23.0,55,29.39,10.0,NW,3.5,-,N/A,,Overcast,320,2012-11-21 07:53:00
11:53 PM,37.9,19.0,47,29.40,10.0,East,3.5,-,N/A,,Overcast,90,2012-11-21 08:53:00